Location: North Bay
(46.3091°N, 79.4608°W)
Time: 04:44:57
(UTC-04:00)

Envisat - Visible Passes

Search period start: 14 October 2019 00:00
Search period end: 24 October 2019 00:00
Orbit: 764 x 766 km, 98.1° (Epoch: 14 October)

Date Brightness Start Highest point End Pass type
(mag) Time Alt. Az. Time Alt. Az. Time Alt. Az.
14 Oct 3.1 18:55:15 10° SSE 19:00:14 58° ENE 19:05:14 10° N visible
14 Oct 5.7 20:36:01 10° SW 20:39:38 19° W 20:43:17 10° NW visible
15 Oct 6.2 07:02:38 10° NE 07:05:50 17° E 07:09:02 10° SE visible
15 Oct 4.4 19:57:48 10° SSW 20:02:33 40° W 20:07:21 10° NNW visible
16 Oct 3.1 19:20:36 10° SSE 19:25:41 84° WSW 19:30:49 10° NNW visible
16 Oct 6.2 21:04:02 10° WSW 21:05:29 11° W 21:06:57 10° WNW visible
17 Oct 5.4 20:24:11 10° SSW 20:28:16 24° W 20:32:22 10° NW visible
18 Oct 6.4 06:52:03 10° ENE 06:54:25 13° E 06:56:48 10° ESE visible
18 Oct 4.0 19:46:20 10° S 19:51:14 50° W 19:56:12 10° NNW visible
19 Oct 3.0 19:09:22 10° SSE 19:14:26 79° ENE 19:19:32 10° N visible
19 Oct 6.0 20:51:23 10° WSW 20:54:04 14° W 20:56:45 10° NW visible
20 Oct 5.0 20:12:29 10° SSW 20:16:54 30° W 20:21:21 10° NNW visible
21 Oct 6.7 06:42:24 10° ENE 06:43:00 10° E 06:43:35 10° E visible
21 Oct 3.5 19:34:56 10° S 19:39:56 63° WSW 19:45:00 10° NNW visible
22 Oct 3.0 18:58:11 10° SSE 19:03:11 64° ENE 19:08:14 10° N visible
22 Oct 5.8 20:39:15 10° SW 20:42:40 18° W 20:46:05 10° NW visible
23 Oct 6.1 07:05:24 10° NE 07:08:52 18° E 07:12:18 10° SE visible
23 Oct 4.6 20:00:53 10° SSW 20:05:33 37° W 20:10:16 10° NNW visible
